Location: Waterloo
(50.7160°N, 4.3650°E)
Time: 10:53:33
(UTC+02:00)

ISS - Pass Details

Date: 06 August 2013
Orbit: 401 x 408 km, 51.6° (Epoch: 26 June)

Event Time Altitude Azimuth Distance (km) Brightness Sun altitude
Rises 22:19:29 0° 284° (WNW) 2,439 1.4 -8.8°
Reaches altitude 10° 22:21:59 10° 268° (W) 1,541 -0.1 -9.1°
Maximum altitude 22:24:39 21° 218° (SW) 1,013 -1.8 -9.4°
Drops below altitude 10° 22:27:14 10° 167° (SSE) 1,491 -1.5 -9.7°
Enters shadow 22:27:17 10° 166° (SSE) 1,502 -1.4 -9.7°
